sat.trackr.live / text

‹ back to catalog

STARLINK-35987

NORAD 66860 · 2025-281N

PAYLOAD ACTIVE UNKNOWN

§ Identity

Operator
Country
US
Launch date
2025-12-02
Launch site
AFETR
Launch vehicle
Mass (kg)
RCS (m²)

Purposes: comms

External: N2YO · Heavens-Above · Gunter

§ Orbital elements

Epoch: 2026-09-20T15:31:02.969760Z

Period
94.27 min
Inclination
43.0010°
Eccentricity
0.0001331
Mean motion
15.27588302 rev/d
Perigee alt
482.1 km
Apogee alt
483.9 km
Semi-major
6,861.2 km
B*
5.0979e-4
RAAN
322.2874°
Arg perigee
271.1705°
Mean anomaly
88.8994°
Rev number
4,600

§ Raw data

STARLINK-359871 66860U 25281N   26263.64656215  .00013796  00000+0  50979-3 0  99962 66860  43.0010 322.2874 0001331 271.1705  88.8994 15.27588302 46002

JSON: /api/v1/satellites/66860 · /tle

For live sub-satellite position, see the globe view (requires WebGL).

§ Visibility from observer

Set your observer location to see the next 7 days of passes ≥ 10°. The values pass through the URL so the page stays shareable.

No JS? Fill the form by hand. The geolocation button needs JavaScript.